Netzbetreibername:;Stadtwerke Malchow;;
Netz- oder Umspannebene:;Netzgebiet;;
Lastgangtyp:;Summenlast der Netzverluste;;
gesetzliche Grundlage:;� 17 Abs. 2 Nr. 3 StromNZV;;
Einheit:;kW;;
Betrachtungszeitraum:;01.01.2012;31.12.2012;
;;;
Datum;von;bis;Wert
01.01.2020;00:00;00:15;109
01.01.2020;00:15;00:30;110
01.01.2020;00:30;00:45;109
01.01.2020;00:45;01:00;108
01.01.2020;01:00;01:15;105
01.01.2020;01:15;01:30;104
01.01.2020;01:30;01:45;103
01.01.2020;01:45;02:00;100
01.01.2020;02:00;02:15;87
01.01.2020;02:15;02:30;99
01.01.2020;02:30;02:45;99
01.01.2020;02:45;03:00;99
01.01.2020;03:00;03:15;96
01.01.2020;03:15;03:30;82
01.01.2020;03:30;03:45;91
01.01.2020;03:45;04:00;88
01.01.2020;04:00;04:15;87
01.01.2020;04:15;04:30;88
01.01.2020;04:30;04:45;89
01.01.2020;04:45;05:00;89
01.01.2020;05:00;05:15;89
01.01.2020;05:15;05:30;88
01.01.2020;05:30;05:45;88
01.01.2020;05:45;06:00;85
01.01.2020;06:00;06:15;87
01.01.2020;06:15;06:30;88
01.01.2020;06:30;06:45;89
01.01.2020;06:45;07:00;91
01.01.2020;07:00;07:15;95
01.01.2020;07:15;07:30;96
01.01.2020;07:30;07:45;97
01.01.2020;07:45;08:00;102
01.01.2020;08:00;08:15;102
01.01.2020;08:15;08:30;108
01.01.2020;08:30;08:45;112
01.01.2020;08:45;09:00;121
01.01.2020;09:00;09:15;131
01.01.2020;09:15;09:30;137
01.01.2020;09:30;09:45;138
01.01.2020;09:45;10:00;140
01.01.2020;10:00;10:15;148
01.01.2020;10:15;10:30;147
01.01.2020;10:30;10:45;152
01.01.2020;10:45;11:00;162
01.01.2020;11:00;11:15;171
01.01.2020;11:15;11:30;174
01.01.2020;11:30;11:45;182
01.01.2020;11:45;12:00;175
01.01.2020;12:00;12:15;178
01.01.2020;12:15;12:30;170
01.01.2020;12:30;12:45;169
01.01.2020;12:45;13:00;161
01.01.2020;13:00;13:15;151
01.01.2020;13:15;13:30;147
01.01.2020;13:30;13:45;142
01.01.2020;13:45;14:00;137
01.01.2020;14:00;14:15;140
01.01.2020;14:15;14:30;139
01.01.2020;14:30;14:45;138
01.01.2020;14:45;15:00;143
01.01.2020;15:00;15:15;143
01.01.2020;15:15;15:30;140
01.01.2020;15:30;15:45;140
01.01.2020;15:45;16:00;142
01.01.2020;16:00;16:15;146
01.01.2020;16:15;16:30;151
01.01.2020;16:30;16:45;167
01.01.2020;16:45;17:00;176
01.01.2020;17:00;17:15;164
01.01.2020;17:15;17:30;161
01.01.2020;17:30;17:45;200
01.01.2020;17:45;18:00;203
01.01.2020;18:00;18:15;204
01.01.2020;18:15;18:30;203
01.01.2020;18:30;18:45;209
01.01.2020;18:45;19:00;193
01.01.2020;19:00;19:15;194
01.01.2020;19:15;19:30;189
01.01.2020;19:30;19:45;183
01.01.2020;19:45;20:00;180
01.01.2020;20:00;20:15;177
01.01.2020;20:15;20:30;168
01.01.2020;20:30;20:45;158
01.01.2020;20:45;21:00;152
01.01.2020;21:00;21:15;149
01.01.2020;21:15;21:30;143
01.01.2020;21:30;21:45;138
01.01.2020;21:45;22:00;134
01.01.2020;22:00;22:15;129
01.01.2020;22:15;22:30;125
01.01.2020;22:30;22:45;116
01.01.2020;22:45;23:00;112
01.01.2020;23:00;23:15;110
01.01.2020;23:15;23:30;107
01.01.2020;23:30;23:45;103
02.01.2020;23:45;00:00;99
02.01.2020;00:00;00:15;96
02.01.2020;00:15;00:30;95
02.01.2020;00:30;00:45;92
02.01.2020;00:45;01:00;92
02.01.2020;01:00;01:15;92
02.01.2020;01:15;01:30;91,06667107
02.01.2020;01:30;01:45;90,67820222
02.01.2020;01:45;02:00;88,56919661
02.01.2020;02:00;02:15;88,56904023
02.01.2020;02:15;02:30;87,09142412
02.01.2020;02:30;02:45;88,13688649
02.01.2020;02:45;03:00;90,55899468
02.01.2020;03:00;03:15;90,98109165
02.01.2020;03:15;03:30;90,18168633
02.01.2020;03:30;03:45;90,18199161
02.01.2020;03:45;04:00;88,71228948
02.01.2020;04:00;04:15;88,85078405
02.01.2020;04:15;04:30;90,05981365
02.01.2020;04:30;04:45;94,6491035
02.01.2020;04:45;05:00;94,99063937
02.01.2020;05:00;05:15;95
02.01.2020;05:15;05:30;95
02.01.2020;05:30;05:45;99
02.01.2020;05:45;06:00;106
02.01.2020;06:00;06:15;120
02.01.2020;06:15;06:30;123
02.01.2020;06:30;06:45;129
02.01.2020;06:45;07:00;136
02.01.2020;07:00;07:15;140
02.01.2020;07:15;07:30;147
02.01.2020;07:30;07:45;154
02.01.2020;07:45;08:00;164
02.01.2020;08:00;08:15;169
02.01.2020;08:15;08:30;170
02.01.2020;08:30;08:45;174
02.01.2020;08:45;09:00;181
02.01.2020;09:00;09:15;180
02.01.2020;09:15;09:30;178
02.01.2020;09:30;09:45;180
02.01.2020;09:45;10:00;185
02.01.2020;10:00;10:15;176
02.01.2020;10:15;10:30;178
02.01.2020;10:30;10:45;181
02.01.2020;10:45;11:00;180
02.01.2020;11:00;11:15;188
02.01.2020;11:15;11:30;192
02.01.2020;11:30;11:45;191
02.01.2020;11:45;12:00;188
02.01.2020;12:00;12:15;184
02.01.2020;12:15;12:30;181
02.01.2020;12:30;12:45;176
02.01.2020;12:45;13:00;165
02.01.2020;13:00;13:15;163
02.01.2020;13:15;13:30;162
02.01.2020;13:30;13:45;153
02.01.2020;13:45;14:00;151
02.01.2020;14:00;14:15;156
02.01.2020;14:15;14:30;158
02.01.2020;14:30;14:45;155
02.01.2020;14:45;15:00;161
02.01.2020;15:00;15:15;167
02.01.2020;15:15;15:30;164
02.01.2020;15:30;15:45;163
02.01.2020;15:45;16:00;170
02.01.2020;16:00;16:15;170
02.01.2020;16:15;16:30;184
02.01.2020;16:30;16:45;198
02.01.2020;16:45;17:00;211
02.01.2020;17:00;17:15;216
02.01.2020;17:15;17:30;222
02.01.2020;17:30;17:45;222
02.01.2020;17:45;18:00;230
02.01.2020;18:00;18:15;232
02.01.2020;18:15;18:30;231
02.01.2020;18:30;18:45;231
02.01.2020;18:45;19:00;221
02.01.2020;19:00;19:15;214
02.01.2020;19:15;19:30;208
02.01.2020;19:30;19:45;209
02.01.2020;19:45;20:00;207
02.01.2020;20:00;20:15;187
02.01.2020;20:15;20:30;170
02.01.2020;20:30;20:45;163
02.01.2020;20:45;21:00;161
02.01.2020;21:00;21:15;155
02.01.2020;21:15;21:30;148
02.01.2020;21:30;21:45;142
02.01.2020;21:45;22:00;140
02.01.2020;22:00;22:15;134
02.01.2020;22:15;22:30;125
02.01.2020;22:30;22:45;120
02.01.2020;22:45;23:00;116
02.01.2020;23:00;23:15;110
02.01.2020;23:15;23:30;105
02.01.2020;23:30;23:45;105
03.01.2020;23:45;00:00;100
03.01.2020;00:00;00:15;97
03.01.2020;00:15;00:30;94
03.01.2020;00:30;00:45;93
03.01.2020;00:45;01:00;93
03.01.2020;01:00;01:15;93
03.01.2020;01:15;01:30;91
03.01.2020;01:30;01:45;91
03.01.2020;01:45;02:00;91
03.01.2020;02:00;02:15;91
03.01.2020;02:15;02:30;87
03.01.2020;02:30;02:45;88
03.01.2020;02:45;03:00;88
03.01.2020;03:00;03:15;89
03.01.2020;03:15;03:30;90,04951822
03.01.2020;03:30;03:45;88,63234257
03.01.2020;03:45;04:00;86,67251264
03.01.2020;04:00;04:15;90,64075306
03.01.2020;04:15;04:30;90,47292454
03.01.2020;04:30;04:45;95
03.01.2020;04:45;05:00;97
03.01.2020;05:00;05:15;97
03.01.2020;05:15;05:30;96
03.01.2020;05:30;05:45;100
03.01.2020;05:45;06:00;109
03.01.2020;06:00;06:15;116
03.01.2020;06:15;06:30;117
03.01.2020;06:30;06:45;121
03.01.2020;06:45;07:00;129
03.01.2020;07:00;07:15;137
03.01.2020;07:15;07:30;142
03.01.2020;07:30;07:45;149
03.01.2020;07:45;08:00;154
03.01.2020;08:00;08:15;162
03.01.2020;08:15;08:30;174
03.01.2020;08:30;08:45;185
03.01.2020;08:45;09:00;188
03.01.2020;09:00;09:15;190
03.01.2020;09:15;09:30;196
03.01.2020;09:30;09:45;191
03.01.2020;09:45;10:00;169
03.01.2020;10:00;10:15;176
03.01.2020;10:15;10:30;176
03.01.2020;10:30;10:45;182
03.01.2020;10:45;11:00;188
03.01.2020;11:00;11:15;193
03.01.2020;11:15;11:30;224
03.01.2020;11:30;11:45;227
03.01.2020;11:45;12:00;233
03.01.2020;12:00;12:15;229
03.01.2020;12:15;12:30;220
03.01.2020;12:30;12:45;212
03.01.2020;12:45;13:00;200
03.01.2020;13:00;13:15;200
03.01.2020;13:15;13:30;189
03.01.2020;13:30;13:45;183
03.01.2020;13:45;14:00;189
03.01.2020;14:00;14:15;189
03.01.2020;14:15;14:30;190
03.01.2020;14:30;14:45;188
03.01.2020;14:45;15:00;185
03.01.2020;15:00;15:15;186
03.01.2020;15:15;15:30;185
03.01.2020;15:30;15:45;193
03.01.2020;15:45;16:00;192
03.01.2020;16:00;16:15;199
03.01.2020;16:15;16:30;206
03.01.2020;16:30;16:45;219
03.01.2020;16:45;17:00;224
03.01.2020;17:00;17:15;225
03.01.2020;17:15;17:30;224
03.01.2020;17:30;17:45;232
03.01.2020;17:45;18:00;242
03.01.2020;18:00;18:15;242
03.01.2020;18:15;18:30;244
03.01.2020;18:30;18:45;232
03.01.2020;18:45;19:00;229
03.01.2020;19:00;19:15;222
03.01.2020;19:15;19:30;207
03.01.2020;19:30;19:45;197
03.01.2020;19:45;20:00;194
03.01.2020;20:00;20:15;184
03.01.2020;20:15;20:30;172
03.01.2020;20:30;20:45;162
03.01.2020;20:45;21:00;153
03.01.2020;21:00;21:15;147
03.01.2020;21:15;21:30;143
03.01.2020;21:30;21:45;137
03.01.2020;21:45;22:00;133
03.01.2020;22:00;22:15;126
03.01.2020;22:15;22:30;125
03.01.2020;22:30;22:45;122
03.01.2020;22:45;23:00;113
03.01.2020;23:00;23:15;110
03.01.2020;23:15;23:30;106
03.01.2020;23:30;23:45;101
04.01.2020;23:45;00:00;101
04.01.2020;00:00;00:15;99
04.01.2020;00:15;00:30;96
04.01.2020;00:30;00:45;94
04.01.2020;00:45;01:00;93
04.01.2020;01:00;01:15;90
04.01.2020;01:15;01:30;88
04.01.2020;01:30;01:45;86
04.01.2020;01:45;02:00;85
04.01.2020;02:00;02:15;85
04.01.2020;02:15;02:30;85
04.01.2020;02:30;02:45;83
04.01.2020;02:45;03:00;85
04.01.2020;03:00;03:15;84
04.01.2020;03:15;03:30;82
04.01.2020;03:30;03:45;83
04.01.2020;03:45;04:00;82
04.01.2020;04:00;04:15;82
04.01.2020;04:15;04:30;85
04.01.2020;04:30;04:45;88
04.01.2020;04:45;05:00;88
04.01.2020;05:00;05:15;90
04.01.2020;05:15;05:30;90
04.01.2020;05:30;05:45;92
04.01.2020;05:45;06:00;96
04.01.2020;06:00;06:15;100
04.01.2020;06:15;06:30;104
04.01.2020;06:30;06:45;106
04.01.2020;06:45;07:00;107
04.01.2020;07:00;07:15;114
04.01.2020;07:15;07:30;122
04.01.2020;07:30;07:45;129
04.01.2020;07:45;08:00;138
04.01.2020;08:00;08:15;144
04.01.2020;08:15;08:30;147
04.01.2020;08:30;08:45;155
04.01.2020;08:45;09:00;159
04.01.2020;09:00;09:15;171
04.01.2020;09:15;09:30;180
04.01.2020;09:30;09:45;187
04.01.2020;09:45;10:00;183
04.01.2020;10:00;10:15;187
04.01.2020;10:15;10:30;192
04.01.2020;10:30;10:45;196
04.01.2020;10:45;11:00;208
04.01.2020;11:00;11:15;221
04.01.2020;11:15;11:30;229
04.01.2020;11:30;11:45;239
04.01.2020;11:45;12:00;225
04.01.2020;12:00;12:15;216
04.01.2020;12:15;12:30;217
04.01.2020;12:30;12:45;211
04.01.2020;12:45;13:00;206
04.01.2020;13:00;13:15;190
04.01.2020;13:15;13:30;180
04.01.2020;13:30;13:45;170
04.01.2020;13:45;14:00;164
04.01.2020;14:00;14:15;165
04.01.2020;14:15;14:30;169
04.01.2020;14:30;14:45;166
04.01.2020;14:45;15:00;166
04.01.2020;15:00;15:15;160
04.01.2020;15:15;15:30;162
04.01.2020;15:30;15:45;156
04.01.2020;15:45;16:00;160
04.01.2020;16:00;16:15;160
04.01.2020;16:15;16:30;163
04.01.2020;16:30;16:45;183
04.01.2020;16:45;17:00;191
04.01.2020;17:00;17:15;195
04.01.2020;17:15;17:30;198
04.01.2020;17:30;17:45;204
04.01.2020;17:45;18:00;208
04.01.2020;18:00;18:15;213
04.01.2020;18:15;18:30;214
04.01.2020;18:30;18:45;212
04.01.2020;18:45;19:00;208
04.01.2020;19:00;19:15;200
04.01.2020;19:15;19:30;188
04.01.2020;19:30;19:45;182
04.01.2020;19:45;20:00;176
04.01.2020;20:00;20:15;172
04.01.2020;20:15;20:30;160
04.01.2020;20:30;20:45;152
04.01.2020;20:45;21:00;152
04.01.2020;21:00;21:15;147
04.01.2020;21:15;21:30;140
04.01.2020;21:30;21:45;135
04.01.2020;21:45;22:00;133
04.01.2020;22:00;22:15;125
04.01.2020;22:15;22:30;121
04.01.2020;22:30;22:45;117
04.01.2020;22:45;23:00;112
04.01.2020;23:00;23:15;109
04.01.2020;23:15;23:30;106
04.01.2020;23:30;23:45;103
05.01.2020;23:45;00:00;102
05.01.2020;00:00;00:15;98
05.01.2020;00:15;00:30;96
05.01.2020;00:30;00:45;94
05.01.2020;00:45;01:00;92
05.01.2020;01:00;01:15;90
05.01.2020;01:15;01:30;90
05.01.2020;01:30;01:45;89
05.01.2020;01:45;02:00;89
05.01.2020;02:00;02:15;90
05.01.2020;02:15;02:30;90
05.01.2020;02:30;02:45;89
05.01.2020;02:45;03:00;87
05.01.2020;03:00;03:15;84
05.01.2020;03:15;03:30;85
05.01.2020;03:30;03:45;85
05.01.2020;03:45;04:00;86
05.01.2020;04:00;04:15;86
05.01.2020;04:15;04:30;87
05.01.2020;04:30;04:45;88
05.01.2020;04:45;05:00;88
05.01.2020;05:00;05:15;87
05.01.2020;05:15;05:30;85
05.01.2020;05:30;05:45;87
05.01.2020;05:45;06:00;89
05.01.2020;06:00;06:15;92
05.01.2020;06:15;06:30;92
05.01.2020;06:30;06:45;96
05.01.2020;06:45;07:00;97
05.01.2020;07:00;07:15;98
05.01.2020;07:15;07:30;103
05.01.2020;07:30;07:45;110
05.01.2020;07:45;08:00;117
05.01.2020;08:00;08:15;123
05.01.2020;08:15;08:30;129
05.01.2020;08:30;08:45;142
05.01.2020;08:45;09:00;150
05.01.2020;09:00;09:15;155
05.01.2020;09:15;09:30;156
05.01.2020;09:30;09:45;160
05.01.2020;09:45;10:00;166
05.01.2020;10:00;10:15;167
05.01.2020;10:15;10:30;168
05.01.2020;10:30;10:45;178
05.01.2020;10:45;11:00;184
05.01.2020;11:00;11:15;195
05.01.2020;11:15;11:30;210
05.01.2020;11:30;11:45;223
05.01.2020;11:45;12:00;204
05.01.2020;12:00;12:15;201
05.01.2020;12:15;12:30;188
05.01.2020;12:30;12:45;170
05.01.2020;12:45;13:00;160
05.01.2020;13:00;13:15;157
05.01.2020;13:15;13:30;154
05.01.2020;13:30;13:45;150
05.01.2020;13:45;14:00;148
05.01.2020;14:00;14:15;139
05.01.2020;14:15;14:30;139
05.01.2020;14:30;14:45;144
05.01.2020;14:45;15:00;143
05.01.2020;15:00;15:15;132
05.01.2020;15:15;15:30;134
05.01.2020;15:30;15:45;136
05.01.2020;15:45;16:00;138
05.01.2020;16:00;16:15;143
05.01.2020;16:15;16:30;149
05.01.2020;16:30;16:45;166
05.01.2020;16:45;17:00;176
05.01.2020;17:00;17:15;179
05.01.2020;17:15;17:30;191
05.01.2020;17:30;17:45;198
05.01.2020;17:45;18:00;201
05.01.2020;18:00;18:15;201
05.01.2020;18:15;18:30;202
05.01.2020;18:30;18:45;192
05.01.2020;18:45;19:00;193
05.01.2020;19:00;19:15;184
05.01.2020;19:15;19:30;175
05.01.2020;19:30;19:45;164
05.01.2020;19:45;20:00;163
05.01.2020;20:00;20:15;158
05.01.2020;20:15;20:30;152
05.01.2020;20:30;20:45;147
05.01.2020;20:45;21:00;147
05.01.2020;21:00;21:15;137
05.01.2020;21:15;21:30;135
05.01.2020;21:30;21:45;130
05.01.2020;21:45;22:00;130
05.01.2020;22:00;22:15;125
05.01.2020;22:15;22:30;115
05.01.2020;22:30;22:45;110
05.01.2020;22:45;23:00;107
05.01.2020;23:00;23:15;104
05.01.2020;23:15;23:30;99
05.01.2020;23:30;23:45;98
06.01.2020;23:45;00:00;94
06.01.2020;00:00;00:15;94
06.01.2020;00:15;00:30;91
06.01.2020;00:30;00:45;87
06.01.2020;00:45;01:00;86
06.01.2020;01:00;01:15;84
06.01.2020;01:15;01:30;87
06.01.2020;01:30;01:45;84
06.01.2020;01:45;02:00;85
06.01.2020;02:00;02:15;86
06.01.2020;02:15;02:30;86
06.01.2020;02:30;02:45;85
06.01.2020;02:45;03:00;85
06.01.2020;03:00;03:15;84
06.01.2020;03:15;03:30;85
06.01.2020;03:30;03:45;84
06.01.2020;03:45;04:00;86
06.01.2020;04:00;04:15;86
06.01.2020;04:15;04:30;88
06.01.2020;04:30;04:45;94
06.01.2020;04:45;05:00;97
06.01.2020;05:00;05:15;98
06.01.2020;05:15;05:30;99
06.01.2020;05:30;05:45;106
06.01.2020;05:45;06:00;116
06.01.2020;06:00;06:15;131
06.01.2020;06:15;06:30;138
06.01.2020;06:30;06:45;154
06.01.2020;06:45;07:00;174
06.01.2020;07:00;07:15;208
06.01.2020;07:15;07:30;234
06.01.2020;07:30;07:45;247
06.01.2020;07:45;08:00;262
06.01.2020;08:00;08:15;258
06.01.2020;08:15;08:30;274
06.01.2020;08:30;08:45;268
06.01.2020;08:45;09:00;271
06.01.2020;09:00;09:15;272
06.01.2020;09:15;09:30;261
06.01.2020;09:30;09:45;257
06.01.2020;09:45;10:00;244
06.01.2020;10:00;10:15;264
06.01.2020;10:15;10:30;259
06.01.2020;10:30;10:45;270
06.01.2020;10:45;11:00;275
06.01.2020;11:00;11:15;282
06.01.2020;11:15;11:30;278
06.01.2020;11:30;11:45;260
06.01.2020;11:45;12:00;255
06.01.2020;12:00;12:15;251
06.01.2020;12:15;12:30;241
06.01.2020;12:30;12:45;223
06.01.2020;12:45;13:00;232
06.01.2020;13:00;13:15;234
06.01.2020;13:15;13:30;233
06.01.2020;13:30;13:45;231
06.01.2020;13:45;14:00;228
06.01.2020;14:00;14:15;230
06.01.2020;14:15;14:30;216
06.01.2020;14:30;14:45;218
06.01.2020;14:45;15:00;190
06.01.2020;15:00;15:15;168
06.01.2020;15:15;15:30;169
06.01.2020;15:30;15:45;170
06.01.2020;15:45;16:00;170
06.01.2020;16:00;16:15;174
06.01.2020;16:15;16:30;179
06.01.2020;16:30;16:45;191
06.01.2020;16:45;17:00;196
06.01.2020;17:00;17:15;198
06.01.2020;17:15;17:30;206
06.01.2020;17:30;17:45;216
06.01.2020;17:45;18:00;217
06.01.2020;18:00;18:15;218
06.01.2020;18:15;18:30;216
06.01.2020;18:30;18:45;212
06.01.2020;18:45;19:00;204
06.01.2020;19:00;19:15;195
06.01.2020;19:15;19:30;188
06.01.2020;19:30;19:45;179
06.01.2020;19:45;20:00;172
06.01.2020;20:00;20:15;164
06.01.2020;20:15;20:30;156
06.01.2020;20:30;20:45;150
06.01.2020;20:45;21:00;144
06.01.2020;21:00;21:15;138
06.01.2020;21:15;21:30;133
06.01.2020;21:30;21:45;129
06.01.2020;21:45;22:00;126
06.01.2020;22:00;22:15;119
06.01.2020;22:15;22:30;112
06.01.2020;22:30;22:45;108
06.01.2020;22:45;23:00;105
06.01.2020;23:00;23:15;99
06.01.2020;23:15;23:30;98
06.01.2020;23:30;23:45;97
07.01.2020;23:45;00:00;95
07.01.2020;00:00;00:15;94
07.01.2020;00:15;00:30;93
07.01.2020;00:30;00:45;90
07.01.2020;00:45;01:00;89
07.01.2020;01:00;01:15;88
07.01.2020;01:15;01:30;85
07.01.2020;01:30;01:45;83
07.01.2020;01:45;02:00;84
07.01.2020;02:00;02:15;85
07.01.2020;02:15;02:30;85
07.01.2020;02:30;02:45;85
07.01.2020;02:45;03:00;85
07.01.2020;03:00;03:15;88
07.01.2020;03:15;03:30;85
07.01.2020;03:30;03:45;86
07.01.2020;03:45;04:00;83
07.01.2020;04:00;04:15;85
07.01.2020;04:15;04:30;86
07.01.2020;04:30;04:45;90
07.01.2020;04:45;05:00;93
07.01.2020;05:00;05:15;95
07.01.2020;05:15;05:30;99
07.01.2020;05:30;05:45;102
07.01.2020;05:45;06:00;111
07.01.2020;06:00;06:15;122
07.01.2020;06:15;06:30;136
07.01.2020;06:30;06:45;142
07.01.2020;06:45;07:00;161
07.01.2020;07:00;07:15;215
07.01.2020;07:15;07:30;213
07.01.2020;07:30;07:45;198
07.01.2020;07:45;08:00;219
07.01.2020;08:00;08:15;251
07.01.2020;08:15;08:30;254
07.01.2020;08:30;08:45;263
07.01.2020;08:45;09:00;273
07.01.2020;09:00;09:15;264
07.01.2020;09:15;09:30;250
07.01.2020;09:30;09:45;246
07.01.2020;09:45;10:00;274
07.01.2020;10:00;10:15;274
07.01.2020;10:15;10:30;270
07.01.2020;10:30;10:45;271
07.01.2020;10:45;11:00;273
07.01.2020;11:00;11:15;281
07.01.2020;11:15;11:30;292
07.01.2020;11:30;11:45;295
07.01.2020;11:45;12:00;290
07.01.2020;12:00;12:15;260
07.01.2020;12:15;12:30;241
07.01.2020;12:30;12:45;244
07.01.2020;12:45;13:00;254
07.01.2020;13:00;13:15;254
07.01.2020;13:15;13:30;255
07.01.2020;13:30;13:45;252
07.01.2020;13:45;14:00;253
07.01.2020;14:00;14:15;261
07.01.2020;14:15;14:30;262
07.01.2020;14:30;14:45;254
07.01.2020;14:45;15:00;226
07.01.2020;15:00;15:15;176
07.01.2020;15:15;15:30;173
07.01.2020;15:30;15:45;174
07.01.2020;15:45;16:00;171
07.01.2020;16:00;16:15;177
07.01.2020;16:15;16:30;181
07.01.2020;16:30;16:45;196
07.01.2020;16:45;17:00;202
07.01.2020;17:00;17:15;215
07.01.2020;17:15;17:30;210
07.01.2020;17:30;17:45;218
07.01.2020;17:45;18:00;223
07.01.2020;18:00;18:15;227
07.01.2020;18:15;18:30;218
07.01.2020;18:30;18:45;218
07.01.2020;18:45;19:00;209
07.01.2020;19:00;19:15;208
07.01.2020;19:15;19:30;196
07.01.2020;19:30;19:45;187
07.01.2020;19:45;20:00;186
07.01.2020;20:00;20:15;180
07.01.2020;20:15;20:30;160
07.01.2020;20:30;20:45;156
07.01.2020;20:45;21:00;149
07.01.2020;21:00;21:15;143
07.01.2020;21:15;21:30;140
07.01.2020;21:30;21:45;132
07.01.2020;21:45;22:00;124
07.01.2020;22:00;22:15;122
07.01.2020;22:15;22:30;118
07.01.2020;22:30;22:45;111
07.01.2020;22:45;23:00;107
07.01.2020;23:00;23:15;102
07.01.2020;23:15;23:30;100
07.01.2020;23:30;23:45;97
08.01.2020;23:45;00:00;94
08.01.2020;00:00;00:15;91
08.01.2020;00:15;00:30;88
08.01.2020;00:30;00:45;85
08.01.2020;00:45;01:00;85
08.01.2020;01:00;01:15;83
08.01.2020;01:15;01:30;84
08.01.2020;01:30;01:45;83
08.01.2020;01:45;02:00;83
08.01.2020;02:00;02:15;84
08.01.2020;02:15;02:30;82
08.01.2020;02:30;02:45;82
08.01.2020;02:45;03:00;82
08.01.2020;03:00;03:15;85
08.01.2020;03:15;03:30;84
08.01.2020;03:30;03:45;84
08.01.2020;03:45;04:00;85
08.01.2020;04:00;04:15;86
08.01.2020;04:15;04:30;86
08.01.2020;04:30;04:45;91
08.01.2020;04:45;05:00;94
08.01.2020;05:00;05:15;95
08.01.2020;05:15;05:30;95
08.01.2020;05:30;05:45;101
08.01.2020;05:45;06:00;109
08.01.2020;06:00;06:15;128
08.01.2020;06:15;06:30;134
08.01.2020;06:30;06:45;142
08.01.2020;06:45;07:00;161
08.01.2020;07:00;07:15;223
08.01.2020;07:15;07:30;238
08.01.2020;07:30;07:45;249
08.01.2020;07:45;08:00;250
08.01.2020;08:00;08:15;251
08.01.2020;08:15;08:30;263
08.01.2020;08:30;08:45;269
08.01.2020;08:45;09:00;268
08.01.2020;09:00;09:15;266
08.01.2020;09:15;09:30;240
08.01.2020;09:30;09:45;262
08.01.2020;09:45;10:00;262
08.01.2020;10:00;10:15;233
08.01.2020;10:15;10:30;257
08.01.2020;10:30;10:45;264
08.01.2020;10:45;11:00;268
08.01.2020;11:00;11:15;276
08.01.2020;11:15;11:30;284
08.01.2020;11:30;11:45;287
08.01.2020;11:45;12:00;286
08.01.2020;12:00;12:15;259
08.01.2020;12:15;12:30;246
08.01.2020;12:30;12:45;260
08.01.2020;12:45;13:00;260
08.01.2020;13:00;13:15;253
08.01.2020;13:15;13:30;262
08.01.2020;13:30;13:45;245
08.01.2020;13:45;14:00;214
08.01.2020;14:00;14:15;221
08.01.2020;14:15;14:30;242
08.01.2020;14:30;14:45;252
08.01.2020;14:45;15:00;206
08.01.2020;15:00;15:15;178
08.01.2020;15:15;15:30;176
08.01.2020;15:30;15:45;176
08.01.2020;15:45;16:00;176
08.01.2020;16:00;16:15;180
08.01.2020;16:15;16:30;194
08.01.2020;16:30;16:45;205
08.01.2020;16:45;17:00;206
08.01.2020;17:00;17:15;214
08.01.2020;17:15;17:30;213
08.01.2020;17:30;17:45;217
08.01.2020;17:45;18:00;220
08.01.2020;18:00;18:15;225
08.01.2020;18:15;18:30;221
08.01.2020;18:30;18:45;212
08.01.2020;18:45;19:00;210
08.01.2020;19:00;19:15;196
08.01.2020;19:15;19:30;193
08.01.2020;19:30;19:45;186
08.01.2020;19:45;20:00;185
08.01.2020;20:00;20:15;173
08.01.2020;20:15;20:30;153
08.01.2020;20:30;20:45;145
08.01.2020;20:45;21:00;142
08.01.2020;21:00;21:15;132
08.01.2020;21:15;21:30;131
08.01.2020;21:30;21:45;127
08.01.2020;21:45;22:00;125
08.01.2020;22:00;22:15;119
08.01.2020;22:15;22:30;114
08.01.2020;22:30;22:45;107
08.01.2020;22:45;23:00;103
08.01.2020;23:00;23:15;99
08.01.2020;23:15;23:30;96
08.01.2020;23:30;23:45;93
09.01.2020;23:45;00:00;92
09.01.2020;00:00;00:15;89
09.01.2020;00:15;00:30;86
09.01.2020;00:30;00:45;86
09.01.2020;00:45;01:00;85
09.01.2020;01:00;01:15;84
09.01.2020;01:15;01:30;82
09.01.2020;01:30;01:45;83
09.01.2020;01:45;02:00;83
09.01.2020;02:00;02:15;84
09.01.2020;02:15;02:30;83
09.01.2020;02:30;02:45;84
09.01.2020;02:45;03:00;82
09.01.2020;03:00;03:15;84
09.01.2020;03:15;03:30;83
09.01.2020;03:30;03:45;83
09.01.2020;03:45;04:00;86
09.01.2020;04:00;04:15;84
09.01.2020;04:15;04:30;84
09.01.2020;04:30;04:45;89
09.01.2020;04:45;05:00;88
09.01.2020;05:00;05:15;94
09.01.2020;05:15;05:30;97
09.01.2020;05:30;05:45;103
09.01.2020;05:45;06:00;110
09.01.2020;06:00;06:15;123
09.01.2020;06:15;06:30;132
09.01.2020;06:30;06:45;139
09.01.2020;06:45;07:00;158
09.01.2020;07:00;07:15;217
09.01.2020;07:15;07:30;238
09.01.2020;07:30;07:45;244
09.01.2020;07:45;08:00;245
09.01.2020;08:00;08:15;252
09.01.2020;08:15;08:30;248
09.01.2020;08:30;08:45;223
09.01.2020;08:45;09:00;246
09.01.2020;09:00;09:15;244
09.01.2020;09:15;09:30;240
09.01.2020;09:30;09:45;244
09.01.2020;09:45;10:00;223
09.01.2020;10:00;10:15;249
09.01.2020;10:15;10:30;252
09.01.2020;10:30;10:45;239
09.01.2020;10:45;11:00;251
09.01.2020;11:00;11:15;265
09.01.2020;11:15;11:30;269
09.01.2020;11:30;11:45;274
09.01.2020;11:45;12:00;269
09.01.2020;12:00;12:15;255
09.01.2020;12:15;12:30;252
09.01.2020;12:30;12:45;233
09.01.2020;12:45;13:00;212
09.01.2020;13:00;13:15;201
09.01.2020;13:15;13:30;192
09.01.2020;13:30;13:45;193
09.01.2020;13:45;14:00;195
09.01.2020;14:00;14:15;225
09.01.2020;14:15;14:30;234
09.01.2020;14:30;14:45;234
09.01.2020;14:45;15:00;221
09.01.2020;15:00;15:15;175
09.01.2020;15:15;15:30;169
09.01.2020;15:30;15:45;171
09.01.2020;15:45;16:00;176
09.01.2020;16:00;16:15;184
09.01.2020;16:15;16:30;187
09.01.2020;16:30;16:45;198
09.01.2020;16:45;17:00;205
09.01.2020;17:00;17:15;215
09.01.2020;17:15;17:30;220
09.01.2020;17:30;17:45;224
09.01.2020;17:45;18:00;226
09.01.2020;18:00;18:15;221
09.01.2020;18:15;18:30;221
09.01.2020;18:30;18:45;222
09.01.2020;18:45;19:00;220
09.01.2020;19:00;19:15;202
09.01.2020;19:15;19:30;191
09.01.2020;19:30;19:45;185
09.01.2020;19:45;20:00;179
09.01.2020;20:00;20:15;171